Location: Auckland
(36.8670°S, 174.7670°E)
Time: 11:12:10
(UTC+12:00)

A-11 Canister half - Pass Details

Date: 28 July 2019
Orbit: 1526 x 1683 km, 47.3° (Epoch: 23 August)

Event Time Altitude Azimuth Distance (km) Brightness Sun altitude
Rises 08:58:22 0° 271° (W) 4,692 11.1 15.4°
Reaches altitude 10° 09:01:34 10° 265° (W) 3,722 10.6 15.9°
Maximum altitude 09:10:37 49° 192° (SSW) 1,956 9.5 17.3°
Drops below altitude 10° 09:19:57 10° 118° (ESE) 3,830 11.4 18.7°
Sets 09:23:18 0° 112° (ESE) 4,838 11.9 19.2°
